GW2215 Weather Reports


Display with metric or nautical units.
time (UTC)temp
F
wind
direction
speed
MPH
gust
MPH
rain 1hr
in
rain 24hr
in
rain mn
in
humidity
%
barometer
mb
20260506181555 63 346 3.0 15.0 0.00 0.05 0.05 82 1002.1
20260506180051 63 300 3.0 22.0 0.00 0.05 0.05 82 1002.2
20260506174517 64 304 6.0 17.0 0.00 0.05 0.05 81 1002.3
20260506173017 63 321 7.0 14.0 0.00 0.05 0.05 82 1002.4
20260506171514 63 302 6.0 14.0 0.01 0.05 0.05 83 1002.5
20260506170015 63 327 10.0 15.0 0.02 0.05 0.05 83 1002.5
20260506164532 63 319 8.0 14.0 0.04 0.05 0.05 84 1002.4
20260506163013 63 355 5.0 9.0 0.04 0.05 0.05 85 1002.6
20260506161505 63 321 3.0 10.0 0.04 0.04 0.04 84 1003.3
20260506160002 64 14 1.0 12.0 0.03 0.03 0.03 81 1003.6
20260506154600 64 331 4.0 10.0 0.01 0.01 0.01 79 1003.7
20260506153057 64 355 7.0 13.0 0.01 0.01 0.01 77 1003.7
20260506151556 65 319 3.0 12.0 0.00 0.00 0.00 74 1003.5
20260506144552 67 328 9.0 15.0 0.00 0.00 0.00 71 1003.5
20260506143053 67 38 8.0 17.0 0.00 0.00 0.00 69 1003.6
20260506141550 68 342 7.0 15.0 0.00 0.00 0.00 67 1003.6
20260506140049 68 336 4.0 15.0 0.00 0.00 0.00 67 1003.6
20260506134544 67 312 5.0 14.0 0.00 0.00 0.00 68 1003.4
20260506133052 67 355 6.0 13.0 0.00 0.00 0.00 69 1003.6
20260506131537 67 297 4.0 17.0 0.00 0.00 0.00 69 1003.5
20260506130035 66 313 9.0 17.0 0.00 0.00 0.00 69 1003.9
20260506124533 66 23 6.0 19.0 0.00 0.00 0.00 71 1003.7
20260506123031 66 302 5.0 16.0 0.00 0.00 0.00 72 1003.7
20260506121527 66 323 6.0 12.0 0.00 0.00 0.00 72 1003.6
20260506120046 65 319 7.0 13.0 0.00 0.00 0.00 73 1003.7
20260506114621 64 302 8.0 17.0 0.00 0.00 0.00 75 1003.6
20260506113020 64 306 7.0 17.0 0.00 0.00 0.00 75 1003.6
20260506111514 64 309 7.0 15.0 0.00 0.00 0.00 76 1003.6
20260506110013 63 290 6.0 14.0 0.00 0.00 0.00 77 1003.6
20260506104521 63 321 8.0 14.0 0.00 0.00 0.00 77 1003.6
20260506103028 63 282 6.0 13.0 0.00 0.00 0.00 77 1003.5
20260506101506 63 298 6.0 13.0 0.00 0.00 0.00 78 1003.5
20260506100005 63 315 5.0 11.0 0.00 0.00 0.00 77 1003.6
20260506094502 63 300 5.0 13.0 0.00 0.00 0.00 77 1003.6
20260506093000 64 313 6.0 11.0 0.00 0.00 0.00 76 1003.5
20260506091607 64 312 6.0 13.0 0.00 0.00 0.00 76 1003.3
20260506090104 64 339 5.0 12.0 0.00 0.00 0.00 75 1003.5
20260506084621 65 282 4.0 12.0 0.00 0.00 0.00 75 1003.6
20260506083053 65 295 6.0 14.0 0.00 0.00 0.00 75 1003.5
20260506081558 65 282 5.0 12.0 0.00 0.00 0.00 75 1003.6
20260506073020 65 315 4.0 9.0 0.00 0.00 0.00 75 1003.4
20260506071519 65 9 2.0 8.0 0.00 0.00 0.00 75 1003.4
20260506061541 66 308 3.0 11.0 0.00 0.00 0.00 72 1003.9
20260506044537 67 266 6.0 11.0 0.00 0.00 0.00 68 1004.7
20260506043029 67 336 5.0 12.0 0.00 0.00 0.00 67 1004.7
20260506041530 68 275 4.0 11.0 0.00 0.00 0.00 66 1004.6
20260506040033 68 307 6.0 12.0 0.00 0.00 0.00 65 1004.5
20260506034526 68 334 4.0 12.0 0.00 0.00 0.00 65 1004.5
20260506033023 68 295 7.0 12.0 0.00 0.00 0.00 64 1004.3
20260506031521 69 330 5.0 13.0 0.00 0.00 0.00 63 1004.5
20260506030021 69 290 5.0 13.0 0.00 0.00 0.00 62 1004.4
20260506024520 69 291 3.0 12.0 0.00 0.00 0.00 61 1004.5
20260506023031 69 315 7.0 13.0 0.00 0.00 0.00 60 1004.6
20260506021530 70 306 3.0 10.0 0.00 0.00 0.00 60 1004.3
20260506020016 70 331 6.0 11.0 0.00 0.00 0.00 59 1004.2
20260506014518 71 302 3.0 12.0 0.00 0.00 0.00 57 1004.2
20260506013057 72 277 6.0 13.0 0.00 0.00 0.00 54 1004.0
20260506011555 72 265 5.0 14.0 0.00 0.00 0.00 51 1003.8
20260506010041 74 277 3.0 10.0 0.00 0.00 0.00 47 1003.7
20260506004542 75 315 5.0 11.0 0.00 0.00 0.00 45 1003.6
20260506003041 75 299 7.0 18.0 0.00 0.00 0.00 45 1003.5
20260506001541 75 300 6.0 11.0 0.00 0.00 0.00 44 1003.3
20260506000034 76 333 8.0 15.0 0.00 0.00 0.00 43 1003.1
20260505234534 77 323 5.0 14.0 0.00 0.00 0.00 42 1002.9
20260505233036 77 322 10.0 21.0 0.00 0.00 0.00 42 1002.8
20260505231548 78 329 6.0 17.0 0.00 0.00 0.00 43 1002.6
20260505230029 78 311 7.0 14.0 0.00 0.00 0.00 42 1002.5
20260505224528 78 329 8.0 18.0 0.00 0.00 0.00 41 1002.5
20260505223028 79 324 7.0 16.0 0.00 0.00 0.00 41 1002.8
20260505220025 80 345 11.0 20.0 0.00 0.00 0.00 36 1002.5
20260505214525 81 338 8.0 19.0 0.00 0.00 0.00 35 1002.5
20260505213034 81 308 12.0 24.0 0.00 0.00 0.00 34 1002.6
20260505211522 81 330 5.0 13.0 0.00 0.00 0.00 34 1002.4
20260505210018 81 341 11.0 20.0 0.00 0.00 0.00 34 1002.3
20260505204518 81 331 10.0 24.0 0.00 0.00 0.00 33 1002.3
20260505203027 81 316 7.0 21.0 0.00 0.00 0.00 32 1002.3
20260505201528 81 333 11.0 23.0 0.00 0.00 0.00 30 1002.4
20260505200014 82 13 10.0 22.0 0.00 0.00 0.00 30 1002.4
20260505194513 82 351 13.0 23.0 0.00 0.00 0.00 31 1002.5
20260505193010 82 336 9.0 24.0 0.00 0.00 0.00 33 1002.4
20260505191512 81 355 13.0 25.0 0.00 0.00 0.00 33 1002.8
20260505190010 81 288 9.0 19.0 0.00 0.00 0.00 37 1002.9
20260505184501 80 332 11.0 25.0 0.00 0.00 0.00 38 1003.2
20260505183101 80 323 8.0 18.0 0.00 0.00 0.00 42 1003.4